Location: Pedholt
(56.0260°N, 10.2097°E)
Time: 19:25:37
(UTC+00:00)

Tiros 1 - Pass Details

Date: 04 August 2021
Orbit: 630 x 663 km, 48.4° (Epoch: 19 September)

Event Time Altitude Azimuth Distance (km) Brightness Sun altitude
Rises 17:40:05 0° 236° (SW) 2,984 11.3 12.0°
Reaches altitude 10° 17:42:40 10° 225° (SW) 2,069 10.3 11.7°
Maximum altitude 17:46:45 29° 166° (SSE) 1,206 8.4 11.1°
Drops below altitude 10° 17:50:49 10° 107° (ESE) 2,056 9.1 10.6°
Sets 17:53:23 0° 97° (E) 2,962 9.9 10.2°
